[Date Prev][Date Next][Thread Prev][Thread Next] - [Date Index][Thread Index][Author Index]

MIR & ISS Keps 6-4-99



MIR
1 16609U 86017A   99155.51140136  .00039130  00000-0  29348-3 0  5478
2 16609  51.6639  48.9043 0006923 179.9926 180.1098 15.72187075759411
ISS
1 25544U 98067A   99155.57205622 -.00007042  00000-0 -83798-4 0  6573
2 25544  51.5962 261.2519 0011167 305.8653  54.1400 15.58442731 30638

----
Via the sarex mailing list at AMSAT.ORG courtesy of AMSAT-NA.
To unsubscribe, send "unsubscribe sarex" to Majordomo@amsat.org



AMSAT Top AMSAT Home